CW5709 Weather Reports


Display with metric or nautical units.
time (UTC)temp
F
wind
direction
speed
MPH
gust
MPH
rain 1hr
in
rain 24hr
in
rain mn
in
humidity
%
barometer
mb
20260508163023 53 0.0 0.0 0.00 0.00 0.00 70 1022.5
20260508161525 52 0.0 0.0 0.00 0.00 0.00 75 1022.4
20260508160015 52 0.0 0.0 0.00 0.00 0.00 76 1022.2
20260508154504 51 0.0 0.0 0.00 0.00 0.00 77 1021.9
20260508153008 50 0.0 0.0 0.00 0.00 0.00 79 1022.3
20260508151508 50 0.0 0.0 0.00 0.00 0.00 81 1021.9
20260508150027 49 0.0 0.0 0.00 0.00 0.00 82 1022.1
20260508144519 49 0.0 0.0 0.00 0.00 0.00 82 1021.9
20260508143005 49 0.0 0.0 0.00 0.00 0.00 82 1021.9
20260508140011 48 0.0 0.0 0.00 0.00 0.00 81 1021.8
20260508134519 48 0.0 0.0 0.00 0.00 0.00 81 1021.7
20260508133022 47 0.0 0.0 0.00 0.00 0.00 81 1021.6
20260508131510 47 0.0 0.0 0.00 0.00 0.00 81 1021.3
20260508124515 48 0.0 0.0 0.00 0.00 0.00 81 1021.0
20260508123027 48 0.0 0.0 0.00 0.00 0.00 80 1020.7
20260508120012 49 0.0 0.0 0.00 0.00 0.00 79 1020.2
20260508113025 49 0.0 0.0 0.00 0.00 0.00 80 1020.2
20260508111523 49 0.0 0.0 0.00 0.00 0.00 80 1019.9
20260508100026 49 0.0 0.0 0.00 0.00 0.00 80 1019.3
20260508090036 50 0.0 0.0 0.00 0.00 0.00 79 1018.5
20260508084522 50 0.0 0.0 0.00 0.00 0.00 78 1018.6
20260508083025 50 0.0 0.0 0.00 0.00 0.00 78 1018.5
20260508081517 51 0.0 0.0 0.00 0.00 0.00 77 1018.3
20260508080003 51 0.0 0.0 0.00 0.00 0.00 77 1018.2
20260508073004 52 0.0 0.0 0.00 0.00 0.00 76 1018.2
20260508071522 52 0.0 0.0 0.00 0.00 0.00 76 1018.2
20260508070018 53 0.0 0.0 0.00 0.00 0.00 74 1018.2
20260508064503 53 0.0 0.0 0.00 0.00 0.00 74 1018.0
20260508061511 54 0.0 0.0 0.00 0.00 0.00 72 1017.8
20260508053003 56 0.0 0.0 0.00 0.00 0.00 70 1017.8
20260508051504 57 0.0 0.0 0.00 0.00 0.00 68 1017.8
20260508040012 61 0.0 0.0 0.00 0.00 0.00 62 1017.2
20260508034515 62 0.0 0.0 0.00 0.00 0.00 59 1017.2
20260508030007 66 0.0 0.0 0.00 0.00 0.00 56 1016.4
20260508024509 67 0.0 0.0 0.00 0.00 0.00 52 1016.4
20260508023016 68 0.0 0.0 0.00 0.00 0.00 50 1016.4
20260508021529 69 0.0 0.0 0.00 0.00 0.00 49 1016.2
20260508014509 71 0.0 0.0 0.00 0.00 0.00 47 1016.2
20260508011519 72 0.0 0.0 0.00 0.00 0.00 49 1016.6
20260508010025 72 0.0 0.0 0.00 0.00 0.00 49 1016.7
20260508003013 72 0.0 0.0 0.00 0.00 0.00 47 1016.7
20260508000022 72 0.0 0.0 0.00 0.00 0.00 45 1016.9
20260507234523 73 0.0 0.0 0.00 0.00 0.00 45 1016.9
20260507233034 73 0.0 0.0 0.00 0.00 0.00 43 1017.1
20260507230020 74 0.0 0.0 0.00 0.00 0.00 42 1017.5
20260507224523 74 0.0 0.0 0.00 0.00 0.00 42 1017.8
20260507221517 76 0.0 0.0 0.00 0.00 0.00 39 1018.2
20260507214521 75 0.0 0.0 0.00 0.00 0.00 41 1018.7
20260507204517 74 0.0 0.0 0.00 0.00 0.00 44 1019.2
20260507203022 74 0.0 0.0 0.00 0.00 0.00 41 1019.5
20260507201509 73 0.0 0.0 0.00 0.00 0.00 45 1019.6
20260507191526 68 0.0 0.0 0.00 0.00 0.00 51 1020.0
20260507184518 64 0.0 0.0 0.00 0.00 0.00 58 1020.2
20260507181524 62 0.0 0.0 0.00 0.00 0.00 60 1020.5
20260507180028 62 0.0 0.0 0.00 0.00 0.00 62 1020.6
20260507171520 59 0.0 0.0 0.00 0.00 0.00 69 1020.8
20260507170022 59 0.0 0.0 0.00 0.00 0.00 69 1020.8
20260507164526 59 0.0 0.0 0.00 0.00 0.00 72 1020.9